Location: Antioch Baptist Church
(32.6696°N, 85.7327°W)
Time: 20:49:15
(UTC+00:00)

Cosmos 1842 Rocket - Pass Details

Date: 14 July 2020
Orbit: 605 x 634 km, 82.5° (Epoch: 13 August)

Event Time Altitude Azimuth Distance (km) Brightness Sun altitude
Rises 03:17:30 0° 345° (NNW) 2,864 8.0 -24.8°
Reaches altitude 10° 03:19:47 10° 339° (NNW) 1,956 7.1 -25.1°
Maximum altitude 03:23:54 44° 268° (W) 836 4.4 -25.6°
Enters shadow 03:24:16 43° 252° (WSW) 851 4.3 -25.7°
